Location: eljas
(40.1958°N, 6.8661°W)
Time: 15:24:53
(UTC+01:00)

ISS - All Passes

Search period start: 30 October 2014 00:00
Search period end: 09 November 2014 00:00
Orbit: 412 x 417 km, 51.6° (Epoch: 30 October)

Date Brightness Start Highest point End Pass type
(mag) Time Alt. Az. Time Alt. Az. Time Alt. Az.
30 Oct - 10:15:48 10° SSE 10:17:41 14° SE 10:19:35 10° E daylight
30 Oct - 11:50:45 10° WSW 11:54:01 60° NW 11:57:20 10° NE daylight
30 Oct - 13:29:08 10° NW 13:31:16 16° NNW 13:33:24 10° NNE daylight
30 Oct - 15:07:40 10° NNW 15:09:03 12° N 15:10:26 10° NNE daylight
30 Oct - 16:43:48 10° NNW 16:46:39 25° NNE 16:49:29 10° E daylight
30 Oct - 18:20:15 10° WNW 18:23:29 47° SW 18:26:42 10° SSE daylight
31 Oct - 11:01:36 10° SW 11:04:54 76° SE 11:08:14 10° NE daylight
31 Oct - 12:39:22 10° WNW 12:41:54 20° NNW 12:44:28 10° NNE daylight
31 Oct - 14:18:21 10° NNW 14:19:36 12° N 14:20:52 10° NNE daylight
31 Oct - 15:54:52 10° NNW 15:57:20 19° NNE 15:59:47 10° ENE daylight
31 Oct - 17:31:02 10° NW 17:34:23 87° SW 17:37:43 10° SE daylight
01 Nov - 10:12:40 10° SSW 10:15:48 40° SE 10:18:56 10° ENE daylight
01 Nov - 11:49:40 10° W 11:52:34 27° NNW 11:55:29 10° NE daylight
01 Nov - 13:28:41 10° NNW 13:30:07 12° N 13:31:34 10° NNE daylight
01 Nov - 15:05:53 10° NNW 15:07:55 15° NNE 15:09:57 10° NE daylight
01 Nov - 16:41:55 10° NW 16:45:12 53° NNE 16:48:28 10° ESE daylight
01 Nov - 18:19:23 10° W 18:21:36 17° SW 18:23:48 10° S daylight
02 Nov - 09:24:05 10° S 09:26:43 22° SE 09:29:22 10° E daylight
02 Nov - 11:00:05 10° WSW 11:03:14 41° NNW 11:06:25 10° NE daylight
02 Nov - 12:38:49 10° NW 12:40:37 14° NNW 12:42:26 10° NNE daylight
02 Nov - 14:16:48 10° NNW 14:18:25 13° N 14:20:02 10° NE daylight
02 Nov - 15:52:49 10° NW 15:55:54 33° NNE 15:58:57 10° E daylight
02 Nov - 17:29:35 10° WNW 17:32:32 29° SW 17:35:28 10° SSE daylight
03 Nov - 08:36:13 10° SSE 08:37:40 12° SE 08:39:08 10° ESE daylight
03 Nov - 10:10:38 10° WSW 10:13:56 70° NW 10:17:16 10° NE daylight
03 Nov - 11:48:53 10° WNW 11:51:06 17° NNW 11:53:21 10° NNE daylight
03 Nov - 13:27:33 10° NNW 13:28:52 12° N 13:30:11 10° NNE daylight
03 Nov - 15:03:44 10° NNW 15:06:29 23° NNE 15:09:14 10° E daylight
03 Nov - 16:40:06 10° WNW 16:43:22 55° SW 16:46:38 10° SE daylight
04 Nov - 09:21:23 10° SW 09:24:40 64° SE 09:27:58 10° ENE daylight
04 Nov - 10:58:58 10° WNW 11:01:36 21° NNW 11:04:15 10° NNE daylight
04 Nov - 12:37:59 10° NNW 12:39:15 12° N 12:40:31 10° NNE daylight
04 Nov - 14:14:38 10° NNW 14:16:59 18° NNE 14:19:20 10° ENE daylight
04 Nov - 15:50:46 10° NW 15:54:06 81° NE 15:57:26 10° SE daylight
04 Nov - 17:29:31 10° WSW 17:30:19 11° SW 17:31:07 10° SW daylight
05 Nov - 08:32:23 10° SSW 08:35:25 34° SE 08:38:28 10° ENE daylight
05 Nov - 10:09:08 10° W 10:12:07 30° NNW 10:15:06 10° NE daylight
05 Nov - 11:48:06 10° NW 11:49:37 12° N 11:51:08 10° NNE daylight
05 Nov - 13:25:30 10° NNW 13:27:24 14° NNE 13:29:19 10° NE daylight
05 Nov - 15:01:30 10° NW 15:04:44 46° NNE 15:07:57 10° ESE daylight
05 Nov - 16:38:43 10° W 16:41:11 19° SW 16:43:38 10° S daylight
06 Nov - 07:43:47 10° S 07:46:12 19° SE 07:48:38 10° E daylight
06 Nov - 09:19:26 10° WSW 09:22:38 46° NNW 09:25:52 10° NE daylight
06 Nov - 10:58:03 10° NW 10:59:57 14° NNW 11:01:52 10° NNE daylight
06 Nov - 12:36:14 10° NNW 12:37:44 12° N 12:39:15 10° NE daylight
06 Nov - 14:12:15 10° NW 14:15:15 30° NNE 14:18:13 10° E daylight
06 Nov - 15:48:52 10° WNW 15:51:56 34° SW 15:54:59 10° SSE daylight
07 Nov - 06:56:23 10° SE 06:57:00 10° SE 06:57:37 10° ESE visible
07 Nov - 08:29:53 10° SW 08:33:12 82° NW 08:36:31 10° NE daylight
07 Nov - 10:07:57 10° WNW 10:10:17 18° NNW 10:12:38 10° NNE daylight
07 Nov - 11:46:46 10° NNW 11:48:01 12° N 11:49:16 10° NNE daylight
07 Nov - 13:23:01 10° NNW 13:25:40 21° NNE 13:28:18 10° ENE daylight
07 Nov - 14:59:17 10° WNW 15:02:36 66° SW 15:05:53 10° SE daylight
08 Nov - 07:40:33 10° SW 07:43:47 54° SE 07:47:02 10° ENE daylight
08 Nov - 09:17:54 10° W 09:20:38 23° NNW 09:23:23 10° NNE daylight
08 Nov - 10:56:57 10° NNW 10:58:15 12° N 10:59:33 10° NNE daylight
08 Nov - 12:33:46 10° NNW 12:35:59 16° NNE 12:38:12 10° ENE daylight
08 Nov - 14:09:50 10° NW 14:13:09 68° NE 14:16:27 10° ESE daylight
08 Nov - 15:47:52 10° WSW 15:49:25 13° SW 15:50:57 10° SSW daylight
